NOAA 16 DEB, 41232

Orbit data source: Space-Track

NOAA 16 DEB, 41232 is space debris in SSO originally from a launch on Thu, 21 Sep 2000 UTC launched from the Air Force Western Test Range (AFWTR). Debris objects in space refer to the collection of defunct objects orbiting the Earth. Examples of debris include non-operational satellites, rocket bodies, and fragments generated from explosions, collisions, or faulty payload assembly.

Loading next visibility...
Identifier
41232, 2000-055EM
Orbit
SSO
Country
Flag of USUS
Related business
Manufacturer
Unknown
Mission
Spacecraft
Bus & Motor
Unknown
Mass
Unknown
Launch date (UTC)
2000-09-21 (25 years ago)
Launch vehicle
Unknown
Launch site
Air Force Western Test Range (AFWTR)
Object type
Payload
Rocket body
Debris
Shape & HBR
Unknown shape, 0.1 m
Radar Cross Section
Small (<0.1 m²)

Expand to show TLE details & history
Last TLE update: 1 day ago

TLE from 1 day ago
0 NOAA 16 DEB
1 41232U 00055EM  25286.42797867  .00008610  00000-0  39045-2 0  9993
2 41232  98.8863 355.3704 0040575 240.0699 119.6446 14.21680861504832
Epoch: 2025-10-13T10:16Z
TLE epoch observation values (Epoch: 2025-10-13T10:16:17.357Z)
Latitude
0.00003°
Longitude
179.06717°
Altitude
837.122 km
Speed
7.427 km/s
True Right ascension
23h 41m 28s
True Declination
0° 00' 00"
Sunlit
Object was in full shadow at epoch
Visualization orbit readout
Latitude
Unknown
Longitude
Unknown
Altitude
Unknown
Speed
Unknown
Apparent Right ascension
Unknown
Apparent Declination
Unknown
Sunlit
N/A
Visualization observer readout
Local Sidereal Time
05:23:09
Azimuth
Unknown
Elevation
Unknown
Doppler factor
Unknown
Orbital elements
Apogee altitude
846.032 km
Perigee altitude
787.645 km
Semi-major axis
7,194.976 km
Eccentricity
0.00406
Inclination
98.8863°
RAAN
355.3704°
Arg. of periapsis
240.0699°
True anomaly
120.04768°
Mean anomaly
119.6446°
Eccentric anomaly
119.84624°
Mean motion
3.55631 °/min
Orbital period
101.23 mins
BSTAR
0.0039045
Loading maneuver chart data...
Computing Atmospheric mass density...
Loading historical data...
Loading historical data...
Loading historical data...
Loading historical data...
Loading historical data...
Loading historical data...
Loading historical data...

Documentation

Showing up to 5 results
|